TimeEST,TemperatureF,Dew PointF,Humidity,Sea Level PressureIn,VisibilityMPH,Wind Direction,Wind SpeedMPH,Gust SpeedMPH,PrecipitationIn,Events,Conditions,WindDirDegrees,DateUTC
12:00 AM,14.0,5.0,67,30.26,15.0,West,13.8,-,N/A,,Scattered Clouds,270,2014-01-01 05:00:00
1:00 AM,14,3,46,30.28,15,West,17.3,,,,Partly Cloudy,270,2014-01-01 06:00:00
1:00 AM,14.0,3.2,62,30.28,15.0,West,15.0,24.2,N/A,,Scattered Clouds,270,2014-01-01 06:00:00
2:00 AM,12.2,3.2,67,30.30,15.0,West,13.8,-,N/A,,Scattered Clouds,270,2014-01-01 07:00:00
3:00 AM,12.2,3.2,67,30.31,15.0,WSW,10.4,-,N/A,,Scattered Clouds,240,2014-01-01 08:00:00
4:00 AM,12.2,3.2,67,30.32,15.0,WSW,11.5,-,N/A,,Partly Cloudy,250,2014-01-01 09:00:00
5:00 AM,12.2,5.0,73,30.32,15.0,WSW,11.5,-,N/A,,Mostly Cloudy,250,2014-01-01 10:00:00
6:00 AM,10.4,5.0,79,30.33,15.0,West,9.2,-,N/A,,Mostly Cloudy,260,2014-01-01 11:00:00
7:00 AM,12,5,63,30.34,15,SW,9.2,,,,Scattered Clouds,230,2014-01-01 12:00:00
7:00 AM,12.2,5.0,73,30.34,15.0,SW,9.2,-,N/A,,Mostly Cloudy,230,2014-01-01 12:00:00
8:00 AM,10.4,3.2,73,30.36,15.0,SW,10.4,-,N/A,,Mostly Cloudy,230,2014-01-01 13:00:00
9:00 AM,12.2,5.0,73,30.39,15.0,WSW,9.2,-,N/A,,Mostly Cloudy,240,2014-01-01 14:00:00
10:00 AM,14.0,5.0,67,30.41,15.0,NNE,3.5,-,N/A,,Overcast,30,2014-01-01 15:00:00
10:49 AM,14.0,6.8,73,30.43,15.0,North,12.7,-,N/A,,Overcast,360,2014-01-01 15:49:00
11:00 AM,12.2,5.0,73,30.43,15.0,North,12.7,-,N/A,,Overcast,10,2014-01-01 16:00:00
12:00 PM,10.4,3.2,73,30.43,15.0,North,12.7,-,N/A,,Mostly Cloudy,10,2014-01-01 17:00:00
1:00 PM,10,0,51,30.42,15,North,12.7,,,,Overcast,0,2014-01-01 18:00:00
1:00 PM,10.4,-0.4,62,30.42,15.0,North,12.7,-,N/A,,Overcast,360,2014-01-01 18:00:00
2:00 PM,8.6,-0.4,67,30.42,15.0,North,12.7,-,N/A,,Overcast,10,2014-01-01 19:00:00
3:00 PM,8.6,-2.2,62,30.42,15.0,NNE,11.5,-,N/A,,Overcast,20,2014-01-01 20:00:00
4:00 PM,8.6,-2.2,62,30.41,15.0,North,16.1,-,N/A,,Mostly Cloudy,10,2014-01-01 21:00:00
5:00 PM,6.8,-5.8,56,30.42,15.0,North,13.8,-,N/A,,Overcast,10,2014-01-01 22:00:00
6:00 PM,5.0,-5.8,61,30.43,15.0,North,12.7,-,N/A,,Scattered Clouds,10,2014-01-01 23:00:00
7:00 PM,6,-6,43,30.43,15,North,9.2,,,,Mostly Cloudy,10,2014-01-02 00:00:00
7:00 PM,5.0,-5.8,61,30.43,15.0,North,9.2,-,N/A,,Mostly Cloudy,10,2014-01-02 00:00:00
8:00 PM,6.8,-5.8,56,30.43,15.0,North,12.7,-,N/A,,Overcast,10,2014-01-02 01:00:00
9:00 PM,5.0,-5.8,61,30.42,15.0,North,11.5,-,N/A,,Overcast,10,2014-01-02 02:00:00
10:00 PM,5.0,-9.4,52,30.40,15.0,NNE,16.1,-,N/A,,Overcast,20,2014-01-02 03:00:00
11:00 PM,5.0,-11.2,47,30.40,15.0,North,16.1,-,N/A,,Overcast,10,2014-01-02 04:00:00